CDT,Max TemperatureF,Mean TemperatureF,Min TemperatureF,Max Dew PointF,MeanDew PointF,Min DewpointF,Max Humidity, Mean Humidity, Min Humidity, Max Sea Level PressureIn, Mean Sea Level PressureIn, Min Sea Level PressureIn, Max VisibilityMiles, Mean VisibilityMiles, Min VisibilityMiles, Max Wind SpeedMPH, Mean Wind SpeedMPH, Max Gust SpeedMPH,PrecipitationIn, CloudCover, Events, WindDirDegrees
2012-10-1,77,70,63,57,53,46,84,59,33,29.81,29.77,29.72,10,10,10,17,7,23,0.00,0,,321
2012-10-2,80,69,57,54,51,46,80,55,30,29.93,29.88,29.81,10,10,10,14,4,21,0.00,0,,294
2012-10-3,83,67,51,55,52,49,93,64,34,30.05,29.97,29.93,10,10,10,16,4,21,0.00,1,,178
2012-10-4,87,73,58,58,56,54,87,61,34,30.18,30.10,30.05,10,10,7,13,5,17,0.00,2,,103
2012-10-5,71,61,50,61,54,43,93,77,61,30.20,30.08,30.04,10,8,2,20,9,24,0.01,8,Rain,299
2012-10-6,51,48,45,43,38,35,76,65,54,30.29,30.25,30.19,10,10,10,15,6,18,0.17,7,Rain,33
2012-10-7,59,50,40,42,36,31,86,61,36,30.33,30.27,30.20,10,10,9,15,5,17,0.08,4,Rain,354
2012-10-8,65,52,38,45,40,34,96,64,31,30.28,30.21,30.08,10,8,0,9,1,12,0.00,1,Fog,129
2012-10-9,72,57,42,57,49,41,96,73,49,30.09,30.02,29.90,10,10,6,13,5,18,0.00,4,,157
2012-10-10,72,62,51,55,44,34,96,62,27,30.26,30.16,30.06,10,8,1,17,6,23,0.00,3,,81
2012-10-11,74,66,57,58,50,40,78,59,40,30.20,30.14,30.08,10,10,5,14,8,17,0.07,6,Rain,70
2012-10-12,71,67,62,63,61,57,93,83,73,30.26,30.17,30.12,10,7,1,24,8,29,1.23,6,Rain,68
2012-10-13,83,73,63,66,64,62,100,78,55,30.13,29.97,29.78,10,5,0,35,9,40,1.05,7,Fog-Rain-Thunderstorm,122
2012-10-14,79,68,56,63,55,48,90,63,35,30.06,29.91,29.76,10,10,8,21,8,26,0.00,0,Rain,258
2012-10-15,84,67,49,53,50,45,93,59,25,30.09,30.00,29.92,10,10,7,13,2,17,0.00,0,,245
2012-10-16,82,68,53,55,49,38,93,57,21,29.93,29.81,29.66,10,10,10,22,6,28,0.00,0,,106
2012-10-17,78,66,54,64,56,43,93,72,51,29.76,29.59,29.50,10,10,10,24,7,30,0.00,4,,258
2012-10-18,73,62,50,46,32,17,77,45,13,29.91,29.83,29.78,10,10,10,33,13,41,0.00,2,,260
2012-10-19,70,58,46,39,31,26,76,50,23,29.88,29.84,29.81,10,10,7,25,11,33,0.00,2,,277
2012-10-20,81,62,42,53,45,39,96,64,32,29.91,29.85,29.76,10,10,10,13,5,15,0.00,1,,71
2012-10-21,82,71,60,66,60,51,79,67,55,29.90,29.86,29.82,10,10,10,22,7,28,0.00,4,,80
2012-10-22,83,75,66,66,64,63,87,71,55,29.98,29.93,29.89,10,10,10,23,7,30,T,5,Rain,180
2012-10-23,85,75,65,64,62,60,87,67,47,29.96,29.91,29.86,10,10,10,18,6,23,0.00,3,,152
2012-10-24,85,74,63,63,61,56,93,67,40,29.98,29.91,29.83,10,10,9,15,6,20,0.00,2,,120
2012-10-25,80,65,50,65,56,39,87,71,54,30.15,29.94,29.80,10,10,8,21,9,29,0.04,7,Rain,309
2012-10-26,57,49,41,40,35,31,71,55,39,30.33,30.25,30.15,10,10,10,20,11,23,0.00,2,,360
2012-10-27,60,48,36,32,29,24,82,54,26,30.36,30.27,30.17,10,10,10,12,5,14,0.00,0,,350
2012-10-28,62,46,30,33,29,20,89,55,20,30.30,30.25,30.19,10,10,10,10,3,13,0.00,0,,334
2012-10-29,63,48,32,35,31,25,89,56,23,30.35,30.25,30.14,10,10,10,8,1,20,0.00,0,,67
2012-10-30,72,53,34,43,37,32,92,60,27,30.13,30.03,29.92,10,10,10,8,2,10,0.00,1,,44
2012-10-31,74,59,44,44,42,38,89,59,29,30.04,29.98,29.93,10,10,10,12,3,14,0.00,0,,41